Starlink 2540

operational
NORAD ID: 48290 Int'l Des: 2021-036 Owner: SPXS Country: US Constellation: starlink
LEOCIRCULARSTARLINK_TYPE

Starlink 2540について

説明を読み込み中...

リアルタイム位置

3D地球を読み込み中...

次回通過

高度履歴

Altitude vs Time

uPlot chart will show altitude changes over time

軌道要素

1 48290U 21036Q 25304.33336806 .02043787 00000-0 87762-1 0 9993
2 48290 53.0539 302.0524 0001414 103.3792 61.5421 15.18567346 5753
Epoch: Oct 31, 2025 • Age: 10 hours

現在のステータス

高度 505.6 km
速度 7.61 km/s
衛星直下点 6.67°N, 172.41°E
打ち上げ日 Apr 29, 2021
運用期間 4.5 years
タイプ internet

技術仕様

分類 Payload
質量 260.00 kg
乾燥質量 248.00 kg
総質量 260.00 kg
長さ 0.20 m
直径 2.80 m
スパン 9.00 m
形状 Box + pan
製造者 SPXS
バスタイプ Starlink
フェーズステータス In Orbit
所有者/国 SPXS/US

大規模コンステレーション

Loading constellations...